Theta_e
339 340 341 341 341 341 341 341 341 340 340 341 341 341 342 342 341 341 341 340 340 341 342 342 341 340 339 339 340 341 342 343 342 340 339 339 338 339 339 338 338 337 337 336 335 334 333 332 332 333 334 335 337 338 339 341 342 342 342 341 341 340 339 338 338 337 336 336 336 336 337 335 334 332 331 331 332 333 334 335 336 338 340 340 341
342 343 343 343 343 343 342 342 341 340 340 340 341 341 341 341 341 341 341 340 340 341 343 343 342 341 341 341 342 343 343 342 340 341 342 342 341 341 341 341 340 339 338 336 335 334 333 333 333 335 336 338 339 341 343 344 345 345 345 345 344 343 340 337 335 334 333 333 333 333 334 334 333 333 333 334 334 335 336 337 338 340 341 343 343
345 345 346 346 345 345 345 345 343 341 340 340 340 340 341 341 342 342 341 341 341 341 342 344 344 343 342 343 343 343 343 341 340 342 344 344 343 342 342 343 342 341 339 337 335 334 334 334 335 337 339 340 342 344 345 346 347 347 347 346 346 345 343 339 336 334 332 331 332 332 332 332 333 334 334 336 337 338 339 340 341 342 342 343 344
345 345 346 346 346 346 346 346 345 342 340 339 340 340 342 342 343 343 342 342 341 342 342 343 344 344 343 343 343 342 342 341 341 342 343 343 344 344 344 345 344 343 340 337 335 335 335 335 336 339 341 343 344 346 347 348 349 349 348 346 345 343 342 340 338 335 332 332 332 332 333 333 334 335 336 338 338 339 340 341 341 342 342 343 343
345 345 346 346 345 345 345 346 345 343 340 340 341 341 343 344 344 344 343 342 341 342 343 344 344 344 344 344 343 342 341 341 341 342 342 342 343 344 345 345 345 343 340 336 334 334 335 337 340 342 343 344 346 346 347 348 349 349 348 346 343 341 339 338 337 335 332 332 333 333 333 334 335 336 337 338 338 339 339 340 340 341 342 343 344
345 345 345 345 344 344 344 345 345 343 341 340 341 342 343 345 345 344 343 341 341 342 344 345 345 345 345 344 344 343 342 342 342 342 342 343 343 343 343 343 343 342 339 336 335 336 337 339 342 343 344 345 344 345 346 347 347 347 345 342 339 337 336 336 335 334 332 331 332 332 333 333 334 335 336 337 337 338 339 340 341 342 343 344 345
346 346 345 345 344 344 344 344 344 344 342 341 342 342 344 345 345 344 343 342 341 342 343 345 345 344 345 344 344 343 342 342 342 343 343 342 343 343 343 343 342 341 339 338 338 339 340 341 342 344 345 345 344 344 345 346 346 346 343 340 337 334 332 332 332 331 330 329 330 330 331 331 332 333 334 336 337 339 340 342 343 343 344 343 345
346 346 346 345 344 344 345 344 343 344 343 342 342 343 345 345 345 344 343 343 343 342 342 344 344 344 344 344 344 344 343 342 342 342 342 343 342 342 342 342 342 341 341 341 341 342 342 342 342 343 344 344 345 344 344 345 345 346 345 343 341 336 330 328 329 329 329 331 331 331 332 332 332 332 332 333 334 336 337 340 342 342 343 343 346
345 346 345 344 344 344 345 345 344 344 343 344 344 345 345 345 344 343 343 343 343 342 342 343 344 344 344 343 344 344 343 342 342 342 343 343 342 342 342 341 341 341 341 341 342 343 343 342 343 343 343 344 344 343 343 344 345 346 346 346 345 341 333 329 329 330 331 333 333 334 335 336 336 335 334 332 331 332 332 335 337 339 341 343 345
345 345 344 344 344 344 345 346 345 344 344 344 345 346 345 344 344 343 343 343 342 342 343 343 343 344 343 342 343 343 342 342 342 342 343 343 343 343 342 340 340 340 340 340 341 342 342 342 343 344 344 344 343 343 344 344 344 345 346 346 346 343 338 334 334 334 335 336 337 339 339 340 340 339 338 337 335 334 332 332 332 334 339 343 344
345 345 344 344 344 345 346 346 345 345 344 345 346 346 344 344 344 343 343 342 342 342 343 342 343 343 343 342 343 343 342 342 342 342 342 342 342 343 342 341 340 340 340 341 341 341 341 342 343 344 345 344 343 345 346 344 343 344 346 346 346 345 341 338 338 339 339 340 341 342 343 343 343 342 342 344 343 340 337 335 333 332 336 342 343
346 345 344 344 344 345 345 346 345 345 344 345 345 345 344 344 344 343 342 342 342 342 343 343 342 343 343 342 342 342 342 342 342 342 342 342 342 342 341 341 341 341 341 341 342 342 342 342 342 343 344 345 345 346 347 346 344 343 344 347 347 346 343 340 340 340 341 342 343 344 345 345 345 344 343 345 346 345 343 340 337 335 335 340 341
347 346 345 344 344 345 345 346 345 344 344 345 345 345 344 344 345 344 343 343 342 342 342 342 342 342 342 342 342 342 342 342 342 342 342 342 341 341 341 341 341 341 341 341 341 341 341 341 342 342 344 345 345 346 346 346 347 344 343 346 348 347 344 340 339 340 341 342 344 345 346 346 346 345 343 343 346 347 346 343 340 337 336 339 340
347 347 346 345 344 344 344 345 345 345 344 344 344 344 344 345 345 344 343 344 343 342 342 342 342 343 343 342 341 341 341 342 342 342 342 342 341 341 341 341 341 342 341 342 341 341 341 341 342 342 343 345 345 346 346 346 348 346 343 345 347 347 344 341 339 341 342 343 344 344 345 346 345 344 343 343 344 346 348 346 342 338 336 338 339
347 348 347 346 345 344 345 346 346 345 344 344 344 344 344 345 345 344 343 343 343 342 343 343 343 344 344 343 342 342 342 341 341 342 342 341 342 341 340 341 341 342 342 341 342 342 341 341 342 343 344 345 345 346 346 346 347 347 345 346 347 347 346 342 341 342 343 344 344 342 343 343 342 341 342 343 344 345 348 348 345 339 336 338 338
346 347 346 346 344 344 345 346 346 345 343 344 344 344 344 345 345 345 343 343 343 343 343 343 343 343 343 343 343 342 342 341 341 341 341 341 341 341 340 341 342 342 341 341 342 342 342 342 343 344 345 345 346 346 345 346 347 347 346 347 347 347 346 344 342 343 343 344 342 340 340 340 340 338 340 344 344 345 346 348 347 340 337 338 337
345 344 345 345 344 344 345 345 345 343 343 343 344 344 344 346 346 345 344 342 343 344 343 343 343 343 344 344 344 343 342 341 340 341 341 341 341 340 340 341 342 342 341 341 342 342 342 342 342 344 345 345 346 346 345 347 348 347 347 347 347 347 347 346 343 343 344 343 341 340 339 339 338 338 340 345 345 345 345 346 348 343 337 337 337
343 342 344 345 344 344 346 345 343 343 343 343 344 344 344 346 346 345 344 342 342 344 344 345 345 344 344 345 345 344 344 342 341 341 341 341 341 341 341 341 341 342 342 343 342 342 342 341 342 343 345 345 345 346 346 348 348 347 346 347 347 346 347 347 345 344 344 343 341 339 339 339 339 339 341 345 345 346 346 345 348 345 339 337 336
342 342 343 345 345 345 345 344 343 343 343 345 346 345 345 345 345 346 345 343 343 344 345 345 345 346 345 345 345 345 345 345 344 342 342 342 341 341 342 342 342 343 343 344 343 343 342 342 343 344 345 345 345 345 347 349 348 347 346 347 347 346 347 347 345 344 344 343 341 339 340 341 341 341 342 345 345 347 347 346 348 347 341 337 336
342 342 343 344 345 345 345 344 343 343 344 346 348 347 346 346 346 346 346 345 344 345 346 345 346 347 346 346 346 345 344 345 345 344 344 343 343 343 343 342 343 344 344 344 344 344 344 344 345 345 345 345 345 345 347 349 348 347 347 347 347 346 347 347 345 344 344 342 341 341 342 342 343 343 344 345 345 346 347 347 348 348 343 337 336
342 342 343 344 345 345 346 345 344 344 344 346 347 347 347 347 347 347 347 346 346 346 347 347 347 348 346 346 345 345 345 345 344 345 345 344 344 344 344 343 343 344 344 344 344 345 345 345 345 344 344 345 345 345 346 349 349 347 348 348 347 347 347 347 344 343 343 342 342 342 343 343 344 344 345 346 346 346 348 348 348 349 346 339 336
343 343 344 345 345 345 346 345 345 344 344 346 346 346 347 347 346 346 346 346 346 346 346 347 347 347 347 346 346 346 346 345 345 345 345 345 345 345 345 345 344 343 344 344 344 345 346 345 345 344 345 346 345 345 346 348 348 349 349 349 347 347 347 346 344 343 343 343 343 344 344 343 343 343 343 345 346 346 348 348 348 349 347 341 337
343 343 345 347 345 343 344 345 345 344 344 345 346 347 347 347 346 345 344 344 345 346 347 347 347 347 347 347 347 347 346 346 345 345 345 346 347 346 346 345 343 344 344 345 345 345 345 345 345 345 345 345 345 345 346 347 348 349 349 348 348 348 346 344 344 343 343 344 344 344 343 342 341 341 342 345 347 347 348 348 348 349 347 342 338
343 344 345 346 344 342 343 344 344 344 345 345 346 348 348 347 347 345 343 341 343 345 347 347 347 347 347 347 348 347 347 346 346 346 346 347 346 345 345 344 344 345 346 346 345 344 344 344 345 345 345 346 346 346 347 347 348 348 348 348 348 347 345 343 344 344 344 345 344 342 342 342 342 341 343 347 348 348 349 349 348 348 347 343 339
343 345 345 345 344 342 343 343 343 343 345 346 346 347 347 347 346 345 342 341 342 343 344 346 346 346 347 347 347 347 347 347 347 347 347 347 346 345 345 346 346 347 346 345 346 346 346 345 345 345 345 346 346 347 347 346 346 347 347 348 347 346 344 343 344 343 344 343 342 341 341 342 342 342 343 346 349 350 350 349 348 348 348 345 341
342 344 346 346 344 343 343 343 342 343 343 344 345 346 347 347 347 345 343 342 342 342 342 342 342 343 343 345 346 347 347 348 348 348 349 349 348 347 347 348 348 348 346 346 348 349 347 346 346 345 346 345 345 346 345 345 345 346 346 346 346 344 343 343 343 342 342 341 341 341 341 342 343 343 343 344 346 349 349 347 348 348 348 348 345
344 345 346 346 345 344 344 343 343 343 342 343 345 347 347 347 347 347 347 346 345 344 343 343 342 342 342 343 345 346 347 348 348 348 349 349 349 349 350 350 350 349 347 346 348 350 348 347 346 346 346 345 346 346 345 345 346 345 346 345 344 344 343 343 342 341 341 342 342 342 342 342 342 342 342 342 343 345 345 346 349 349 348 349 348
347 346 346 346 345 344 344 344 344 343 343 345 346 347 347 345 345 346 347 348 348 346 345 346 346 344 343 344 346 348 348 348 348 348 349 349 349 349 350 352 352 351 350 348 348 349 349 348 348 347 346 346 346 347 347 346 346 345 345 345 344 344 344 343 342 341 341 342 342 342 342 342 342 342 342 342 342 343 344 346 348 349 349 349 349
349 347 347 347 346 345 345 344 343 343 344 345 345 346 346 345 343 343 344 347 348 346 345 346 346 345 345 345 346 348 349 349 349 349 349 350 351 350 351 352 352 352 352 350 349 349 350 350 350 348 347 347 347 347 347 346 346 345 345 344 344 344 344 343 342 341 340 340 340 340 341 341 342 342 341 342 344 344 344 346 348 349 350 350 349
348 347 347 348 348 347 347 345 344 344 344 344 343 344 344 344 343 342 343 344 345 345 343 343 344 345 346 346 347 348 350 350 350 350 350 351 351 351 351 351 352 352 352 351 350 349 349 351 352 349 347 346 345 344 344 343 344 344 344 344 344 344 344 343 341 339 338 339 340 340 341 342 342 342 342 345 346 344 343 346 348 349 350 350 349
347 346 346 348 348 348 349 347 347 347 345 343 343 343 343 342 342 343 343 343 343 343 343 343 343 345 346 346 346 348 350 351 351 351 351 351 351 352 351 351 352 352 351 351 350 349 350 351 351 350 348 345 342 339 337 338 342 344 344 343 343 343 343 342 340 338 339 340 341 341 342 343 343 344 346 348 347 345 345 347 348 349 350 349 349
347 346 345 345 347 348 349 348 348 348 347 345 343 342 342 342 342 343 344 343 343 342 343 344 343 344 345 345 345 348 350 351 351 351 351 351 351 350 350 350 351 351 352 351 350 349 350 351 351 349 347 343 338 335 333 334 337 340 341 341 342 342 340 339 338 338 340 341 342 343 343 344 345 347 349 350 347 346 347 348 348 349 350 349 350
346 345 345 346 348 349 349 348 348 348 347 345 345 345 344 343 342 342 343 343 343 343 343 344 345 345 345 344 344 345 348 349 350 350 350 351 351 350 349 348 348 350 351 351 350 349 349 351 350 348 344 339 335 334 332 331 332 333 336 338 339 339 338 338 339 340 341 342 343 345 346 347 349 351 351 350 349 348 348 349 349 350 349 350 351
346 347 347 348 349 350 349 348 347 347 345 345 346 347 346 344 343 343 343 342 343 343 343 343 345 347 347 345 343 343 345 347 348 349 350 350 349 349 348 348 348 350 352 351 351 350 350 350 349 346 341 337 335 334 333 332 332 332 334 337 339 340 340 340 341 341 342 344 346 348 349 350 351 352 352 351 350 349 350 350 350 350 349 350 351
347 348 348 348 349 350 349 349 348 347 346 345 346 347 347 346 347 347 345 344 344 344 343 344 346 347 346 345 345 344 344 345 346 347 347 347 347 346 348 350 351 352 352 351 351 351 351 350 348 344 341 337 335 335 334 335 335 335 337 339 341 343 343 341 341 342 344 347 349 350 350 351 352 353 352 352 351 350 350 350 349 349 349 350 351
348 349 349 349 350 350 350 350 349 349 349 348 347 348 348 349 349 349 348 348 346 346 346 345 346 346 346 346 348 347 345 344 345 345 346 346 346 347 349 351 352 352 351 351 351 351 351 349 347 346 343 340 337 336 337 338 339 340 341 342 343 344 342 340 342 345 348 350 351 351 351 351 352 352 353 352 352 351 350 350 350 350 350 350 351
349 350 350 350 350 350 350 350 351 351 350 350 350 350 350 350 350 350 350 349 348 348 347 347 347 347 347 347 348 348 347 346 346 347 348 349 349 349 350 351 352 352 351 351 350 350 350 349 348 348 346 343 339 338 339 340 341 341 341 343 344 343 341 341 343 347 350 351 351 351 351 352 352 352 352 352 352 352 351 350 350 350 351 351 351
348 349 349 350 350 350 350 351 351 351 351 351 351 350 350 351 350 350 350 350 349 348 347 347 347 346 346 346 347 347 347 347 348 348 348 349 349 349 349 350 352 352 351 350 350 349 350 350 350 350 349 345 340 339 341 341 341 341 340 342 344 341 340 340 342 348 350 350 351 352 351 351 352 351 352 352 352 352 351 350 351 350 350 350 352
347 348 349 349 350 350 350 350 350 351 351 350 351 350 350 351 351 351 351 351 350 349 347 346 347 347 348 348 348 348 348 348 349 348 348 349 349 349 348 348 351 352 351 350 350 350 350 350 351 351 350 345 340 339 341 342 342 342 341 343 343 340 339 340 341 345 344 338 342 349 350 349 348 347 348 349 350 350 351 350 349 349 349 350 352
348 349 349 349 350 350 350 350 350 350 350 350 350 350 349 350 350 350 350 350 351 350 348 346 346 347 348 349 350 350 350 350 349 349 349 349 349 349 348 348 349 351 351 351 350 350 350 350 351 351 349 345 341 341 342 341 341 341 342 344 342 336 338 342 342 342 338 328 326 338 348 346 341 338 339 342 346 348 349 350 350 349 351 352 353
349 349 349 350 350 350 350 349 349 349 349 349 349 349 349 349 349 349 349 349 350 350 350 348 347 346 346 347 350 351 351 350 350 349 349 349 349 349 349 349 349 350 350 350 350 350 350 350 350 350 348 345 342 342 341 341 341 341 343 345 339 332 336 343 343 340 339 333 325 330 338 337 335 337 336 338 344 347 349 350 350 351 352 353 354
350 350 350 350 350 350 349 348 348 348 348 348 348 348 349 349 349 349 349 349 349 349 350 350 349 349 347 347 348 349 351 350 350 349 349 349 349 349 348 349 350 350 350 349 349 350 350 350 350 350 348 346 343 343 342 341 342 343 344 344 337 330 333 340 341 338 340 339 331 328 330 331 338 345 343 342 347 349 350 351 350 352 352 352 353
350 350 350 350 350 350 349 348 347 347 347 347 347 347 348 348 348 348 348 348 348 349 349 349 350 350 350 350 349 349 350 350 349 348 348 349 349 349 349 349 349 349 349 348 348 349 349 350 350 350 350 347 344 343 343 342 343 343 345 343 335 328 331 337 338 336 338 341 336 329 327 330 340 348 347 346 348 349 350 351 351 351 352 351 351
350 350 350 350 350 350 349 348 347 346 346 345 345 346 346 346 346 347 347 347 348 348 348 348 348 349 350 350 349 349 350 350 349 348 348 348 347 347 348 348 349 348 348 348 347 347 348 349 350 351 351 348 345 345 344 343 343 344 345 343 333 327 329 334 336 335 337 341 339 330 325 327 338 348 349 347 347 347 348 349 349 349 350 349 349
350 350 350 350 351 350 349 349 348 347 347 346 346 346 345 345 345 345 346 347 347 348 348 346 346 348 349 349 349 349 349 348 348 348 348 346 345 344 344 345 346 347 347 347 347 347 349 350 351 352 351 349 347 347 346 344 344 344 345 343 334 327 328 332 335 336 339 342 340 331 324 323 330 341 348 347 346 345 345 345 345 343 342 340 338
350 349 348 348 348 349 349 349 348 348 347 346 346 345 345 345 345 345 345 347 347 347 347 345 345 346 347 348 349 349 348 348 348 347 347 346 345 345 343 342 342 342 343 345 347 348 349 350 352 352 351 350 349 348 347 345 345 345 345 342 334 330 332 335 337 339 341 343 341 332 324 321 322 332 343 346 345 343 341 341 340 337 333 329 324
349 347 346 347 348 349 349 349 349 349 348 348 347 346 345 345 345 345 345 346 347 347 346 346 345 345 345 346 347 348 348 349 349 348 347 346 346 346 345 343 341 340 341 344 346 348 349 351 352 352 351 350 350 348 347 345 345 346 344 339 334 333 338 341 342 343 343 343 339 330 323 320 321 328 338 343 343 340 337 334 332 329 326 322 318
349 348 348 349 350 349 348 348 348 349 349 349 349 348 347 346 345 345 345 345 346 346 346 346 345 345 345 344 344 346 349 351 351 350 350 349 347 347 347 344 342 342 344 345 346 348 350 351 352 351 351 350 348 347 345 345 347 346 341 336 336 339 343 344 344 344 343 341 335 326 321 321 322 328 336 339 339 337 332 328 325 323 320 318 316
349 349 349 351 351 350 349 349 349 349 349 349 350 349 349 348 347 346 345 345 345 345 346 346 346 346 346 345 343 343 346 349 350 350 351 351 350 349 348 346 343 344 345 346 347 348 349 350 351 350 349 348 346 345 345 346 347 343 337 337 341 343 344 344 344 343 339 335 329 322 321 323 323 327 333 334 333 332 328 323 321 320 318 315 315
349 349 349 350 350 350 350 349 348 347 347 347 348 349 349 349 349 348 346 345 345 345 346 346 347 347 346 346 344 342 341 342 346 349 351 352 351 350 349 347 344 344 346 348 348 349 349 349 349 348 348 347 346 346 346 347 345 339 336 339 342 343 343 342 341 338 333 329 325 321 322 325 324 325 327 328 329 329 324 319 318 318 316 314 315
348 348 348 348 348 348 348 348 347 347 347 347 348 348 348 349 348 347 347 346 346 346 346 346 346 346 346 346 345 345 343 341 343 348 351 351 351 351 349 347 345 345 347 348 349 349 350 350 349 348 348 347 347 347 347 344 339 336 337 341 342 342 341 340 337 332 326 323 323 322 324 326 325 324 324 324 324 324 320 316 315 314 313 312 314
Wind_Speed
15 14 13 13 12 11 10 9 8 7 6 5 5 5 4 3 3 3 2 2 2 4 6 7 7 8 9 10 10 10 11 12 13 13 13 13 12 12 12 12 12 11 11 12 12 12 13 13 13 13 13 13 13 13 13 13 14 14 14 14 13 13 12 11 10 9 8 8 7 6 5 5 4 5 6 7 9 10 11 11 11 12 13 15 17
13 12 11 11 10 9 8 8 7 6 6 6 5 4 3 3 3 3 3 3 3 4 6 7 8 9 9 9 9 10 11 12 13 13 13 13 12 12 12 12 12 12 12 12 13 13 13 13 13 13 13 13 14 14 14 14 15 15 15 15 15 15 14 12 11 10 9 9 8 7 6 5 5 5 6 7 9 10 11 12 13 14 15 16 17
12 11 10 9 9 8 8 7 6 6 6 6 5 4 3 3 3 4 4 3 3 4 5 6 8 8 9 9 9 10 11 11 12 12 11 11 12 12 12 12 12 12 12 12 12 12 12 12 12 12 13 14 14 15 15 15 15 15 15 15 15 15 15 14 12 11 11 10 9 9 8 7 7 7 8 8 9 11 11 12 13 15 17 17 18
10 9 9 8 8 7 7 6 6 6 7 6 5 3 2 2 3 4 4 4 4 4 5 6 7 7 8 8 9 10 10 10 11 11 11 11 11 12 12 12 12 12 12 12 12 11 11 11 11 12 13 14 14 15 15 15 15 15 15 15 15 15 14 14 13 12 11 11 10 10 10 9 9 9 9 10 11 12 12 13 13 16 18 19 20
9 8 7 6 7 7 6 6 6 7 8 7 5 3 1 2 3 4 4 5 5 5 6 6 7 7 7 7 8 9 10 10 10 10 11 11 11 11 11 11 11 12 12 11 10 10 10 10 11 12 12 13 14 14 15 15 15 15 15 15 16 15 15 14 13 12 11 11 11 11 11 10 10 10 11 11 12 14 15 16 16 16 18 20 22
7 7 6 6 7 7 7 6 6 7 8 7 5 3 1 1 3 3 3 5 5 6 6 7 8 8 8 7 7 7 8 8 8 8 9 10 10 10 11 11 12 12 11 11 10 10 10 9 10 11 11 12 13 14 14 14 15 15 16 16 16 16 15 15 14 13 12 12 12 12 12 12 12 13 13 13 14 15 17 18 18 19 19 21 22
6 6 6 6 6 7 7 6 6 7 7 7 5 3 1 1 3 3 3 4 4 4 4 5 7 7 7 7 6 6 6 7 6 6 7 7 8 8 9 10 11 11 11 10 9 8 8 8 9 10 10 11 12 13 14 14 15 15 16 16 17 17 16 16 15 15 14 14 14 15 15 15 15 16 16 16 16 17 18 19 20 20 20 21 22
6 5 5 6 6 6 6 6 6 6 6 6 5 4 1 2 3 3 1 2 3 3 3 3 4 5 6 7 6 6 6 6 5 5 5 5 6 7 7 8 9 10 10 9 8 7 8 8 9 9 10 11 11 12 13 14 14 15 16 16 17 17 17 16 16 15 15 16 16 17 18 19 19 19 19 19 19 19 19 20 20 21 20 21 21
5 5 5 5 5 5 5 4 4 5 6 6 5 4 1 3 3 2 0 1 2 3 3 2 3 4 5 7 6 5 6 5 5 4 5 5 6 6 7 8 8 9 10 9 9 9 9 9 10 10 10 11 11 12 13 14 14 14 15 15 16 17 17 16 15 15 15 16 17 18 19 20 21 22 22 22 21 21 21 20 20 20 19 20 20
4 4 4 4 4 4 3 3 3 4 5 5 4 3 1 2 2 1 0 1 0 1 2 2 3 4 6 6 5 4 4 4 4 4 4 5 6 6 7 7 8 9 9 10 10 10 9 10 12 12 12 12 12 13 15 15 14 13 14 15 15 16 15 15 14 14 15 16 17 18 19 20 22 23 23 23 23 22 21 21 20 19 18 18 19
3 3 4 4 4 3 3 2 2 3 4 4 4 2 1 2 2 1 1 1 1 1 0 1 2 4 5 4 3 3 3 3 3 3 4 5 5 5 5 6 7 8 8 9 9 9 9 9 11 12 13 13 13 13 15 16 15 13 13 14 14 14 14 13 13 13 14 15 17 18 18 19 21 22 23 24 24 23 22 21 21 19 18 17 18
1 2 2 3 3 3 3 2 2 3 4 4 3 2 1 1 2 1 1 2 1 1 1 2 2 3 4 3 2 3 3 3 3 4 5 5 4 4 5 5 6 6 7 7 8 9 9 9 10 11 12 12 13 13 15 16 16 13 12 13 14 13 12 12 11 12 13 15 17 17 18 19 20 21 22 23 25 25 24 23 21 20 18 17 17
2 1 2 2 2 2 2 2 2 3 4 5 4 3 2 1 1 1 2 3 3 2 3 3 3 3 3 1 1 1 2 2 3 4 5 5 4 4 4 5 6 6 6 6 7 8 9 8 9 10 10 11 13 14 15 16 17 15 12 12 13 13 12 11 11 12 14 16 17 18 18 18 19 19 20 21 24 26 26 25 23 21 19 18 17
3 2 2 2 3 3 3 3 2 3 4 5 5 5 4 3 2 3 3 3 3 2 2 2 2 1 1 1 1 1 2 2 3 5 5 4 3 3 3 4 6 6 7 6 6 7 8 8 8 9 9 11 12 14 15 15 16 16 13 11 12 13 13 11 11 13 15 17 18 18 17 16 17 17 18 19 22 25 27 28 26 22 20 19 19
4 3 3 3 3 3 4 3 3 4 4 6 6 6 5 4 4 4 3 3 3 3 2 1 1 1 1 3 3 4 4 4 4 5 5 4 3 1 2 4 5 6 6 6 6 7 7 7 7 7 8 10 12 13 14 14 15 15 13 11 11 13 14 12 12 13 15 17 17 18 17 16 16 16 16 17 20 23 26 29 29 24 21 21 20
5 4 3 3 4 4 4 4 3 3 5 6 7 7 6 5 5 5 4 3 4 4 3 3 2 2 3 4 4 4 5 5 4 4 4 4 2 1 2 4 5 7 7 7 7 6 6 6 6 7 8 10 11 13 14 14 15 14 12 10 11 13 14 14 13 14 16 17 17 18 19 17 17 17 15 16 19 22 24 27 30 26 22 23 22
5 4 3 3 4 4 4 4 4 4 5 6 7 7 7 6 6 6 5 4 4 4 4 4 4 4 4 5 5 4 4 4 4 4 4 5 2 1 3 4 5 7 8 9 9 7 6 7 8 8 9 10 11 13 14 14 14 13 11 10 11 12 14 15 16 16 17 17 17 19 20 19 18 18 16 16 19 21 23 26 29 28 24 23 22
6 5 4 3 3 4 4 5 5 5 5 6 7 8 7 7 7 6 5 5 4 4 4 4 5 5 5 5 4 4 4 4 3 4 5 5 3 3 5 5 6 8 9 10 10 9 8 8 9 10 11 10 11 13 13 12 12 12 11 10 11 13 13 16 17 17 17 18 19 19 19 18 19 18 16 17 19 21 23 24 26 29 26 24 23
6 6 5 5 4 4 5 5 5 5 6 7 7 8 8 7 7 6 5 5 5 4 3 4 5 5 5 5 4 3 4 4 4 5 5 5 4 5 6 6 7 9 10 11 11 9 9 10 10 10 11 11 11 12 11 10 10 10 10 10 12 13 13 15 17 17 17 18 19 19 18 18 19 18 16 17 19 21 23 23 24 27 26 24 22
7 7 7 6 6 6 6 6 6 6 6 7 8 7 7 7 7 7 6 5 5 3 3 3 4 4 4 4 4 3 4 4 5 6 6 6 6 6 6 6 7 8 9 9 9 9 9 10 10 10 11 12 12 11 9 9 10 9 10 12 14 14 13 15 17 17 17 18 19 17 17 19 19 17 16 18 19 20 22 22 22 26 26 24 22
9 8 8 7 7 7 7 7 7 7 7 7 7 7 7 7 8 7 7 6 6 5 3 3 3 4 4 4 5 5 5 5 6 6 7 8 7 8 8 8 7 7 8 8 8 9 10 10 11 11 11 11 11 11 9 9 11 10 11 13 14 13 14 15 16 16 16 16 17 16 16 18 18 17 17 19 20 20 22 22 21 24 26 24 21
9 9 9 8 8 8 8 8 8 8 8 7 7 8 8 8 8 8 8 8 8 7 6 4 4 4 4 5 6 6 6 7 7 7 8 8 8 10 11 11 10 10 9 9 8 9 11 11 10 10 10 10 11 11 9 9 11 11 11 13 13 13 14 14 14 13 13 14 14 14 15 18 20 20 19 20 20 19 21 22 21 22 25 23 20
10 10 10 9 9 9 8 8 9 8 8 8 7 8 8 8 8 8 8 8 9 9 8 7 6 6 5 6 6 7 7 7 7 7 8 8 9 10 11 11 11 11 10 9 9 10 10 9 8 8 9 10 10 10 8 8 11 11 11 12 13 14 14 13 12 12 13 14 14 14 16 19 21 22 21 19 18 17 20 22 21 21 24 23 20
11 11 11 11 10 10 9 9 9 8 8 8 8 8 8 7 8 8 8 8 9 9 9 9 8 7 7 7 7 7 7 7 7 7 7 8 9 10 10 10 10 9 9 9 9 9 8 7 7 7 8 8 8 8 8 8 10 11 12 12 13 14 13 11 11 12 13 15 15 15 17 20 22 23 22 18 16 16 19 22 20 19 22 22 19
12 11 11 11 10 9 9 9 9 8 9 9 9 9 9 8 7 8 8 8 8 8 8 9 9 9 9 8 8 8 8 7 7 6 7 7 8 8 8 9 9 9 9 9 8 7 6 6 6 6 7 7 7 7 8 10 11 13 14 13 12 12 12 11 12 14 14 15 15 15 18 20 22 24 22 19 17 17 20 22 18 17 20 21 20
11 11 11 11 10 9 9 9 9 8 9 9 9 9 9 8 8 8 8 8 8 8 8 8 9 10 10 10 9 8 8 8 7 5 5 6 7 7 8 8 9 9 9 8 7 7 7 7 6 6 6 7 7 8 9 11 12 13 13 12 11 11 12 13 14 15 15 16 16 17 19 21 23 25 24 22 20 19 20 20 15 15 18 20 20
9 9 10 10 10 10 9 10 9 9 9 9 9 9 10 10 9 9 8 8 8 8 8 8 8 10 10 10 10 9 9 8 7 5 5 5 6 6 8 9 10 10 10 7 6 7 8 8 6 6 7 7 7 8 9 10 11 11 11 10 10 12 13 15 15 16 16 17 18 19 20 22 25 26 25 24 22 21 20 16 12 14 16 18 20
9 9 9 10 11 10 10 10 10 10 10 9 9 10 10 10 10 10 9 9 8 8 8 7 8 9 9 10 9 9 9 8 7 6 5 6 5 6 7 8 9 11 11 10 8 8 9 9 7 7 8 8 7 7 8 9 9 10 11 11 12 13 14 15 15 16 17 18 19 20 22 24 25 25 24 23 22 20 17 11 9 13 15 16 19
9 9 9 10 10 10 10 10 10 10 11 11 10 10 11 10 10 10 9 9 10 9 8 8 8 8 9 10 10 9 9 8 7 6 6 6 5 6 7 7 8 10 11 13 12 9 10 10 9 8 8 7 7 7 7 9 9 10 11 11 12 13 14 15 16 17 18 19 20 21 23 24 24 23 22 21 20 17 12 8 9 13 15 15 18
11 10 10 10 10 10 10 10 11 11 11 11 10 10 10 10 10 9 9 10 10 10 9 9 9 9 9 10 11 10 10 9 8 7 7 6 6 6 7 8 8 8 9 12 13 11 10 9 9 9 9 8 8 8 9 10 10 10 11 11 13 14 14 16 17 18 19 20 21 22 22 22 21 20 19 18 17 13 9 8 9 13 15 15 16
12 12 12 12 11 10 10 11 11 11 11 11 10 10 10 10 10 9 9 9 10 10 10 9 9 9 9 10 11 11 11 10 9 9 9 8 8 8 8 8 8 9 9 11 13 11 10 9 8 9 10 9 8 9 10 11 10 10 11 12 14 15 16 17 19 20 21 21 22 21 20 20 18 17 17 16 14 12 9 8 9 12 14 14 15
12 12 12 12 11 10 10 10 11 11 11 10 9 9 9 10 10 10 9 10 10 9 9 9 9 9 10 10 11 11 12 11 10 10 11 10 10 10 9 9 9 9 10 11 14 12 10 9 9 9 9 9 9 11 11 11 11 11 13 14 16 17 18 19 19 20 22 21 20 19 18 17 15 14 16 16 13 11 10 9 10 12 12 12 14
12 12 11 11 10 10 10 10 10 11 11 10 9 9 9 9 9 9 10 10 10 10 9 9 9 9 10 10 10 11 12 12 12 12 12 12 12 11 11 10 9 9 10 11 13 13 10 8 8 9 9 10 11 13 12 12 11 12 13 15 17 18 19 19 19 20 21 19 17 16 15 13 12 12 14 14 13 12 11 11 11 11 11 11 13
13 13 12 10 9 9 10 10 10 10 10 10 10 10 10 9 9 8 9 10 10 10 9 9 9 10 11 11 10 10 12 13 13 13 13 13 12 12 10 10 9 8 9 9 10 12 11 8 8 9 10 12 13 14 14 14 14 14 14 15 16 17 18 18 19 19 18 16 14 13 11 10 10 11 12 12 12 12 13 13 11 10 10 11 11
14 13 12 11 10 10 10 10 10 10 10 10 10 10 10 9 8 8 8 9 9 9 9 10 10 10 11 11 10 11 12 13 13 13 13 13 12 11 10 9 9 9 9 9 9 11 11 9 9 10 12 13 13 14 14 14 15 15 15 14 15 17 18 18 17 15 14 13 11 10 9 8 8 9 10 11 11 11 11 11 9 9 11 10 10
14 13 13 11 11 11 10 10 9 9 9 9 10 10 9 8 8 8 8 9 9 9 9 10 10 11 12 11 11 11 12 12 12 12 12 12 12 11 11 10 11 10 10 11 10 10 9 9 10 12 14 14 14 14 14 14 14 14 13 13 15 17 17 16 15 13 11 10 8 8 8 8 8 8 9 10 11 11 10 9 8 9 11 10 9
14 13 13 13 12 11 11 10 10 10 9 9 10 10 9 8 8 8 8 9 10 10 11 11 11 11 12 12 12 11 12 12 12 12 12 11 11 12 12 11 11 11 11 11 10 9 8 9 11 13 15 15 14 13 14 14 13 13 12 13 15 16 15 14 13 11 9 8 7 7 8 8 9 9 10 10 11 11 11 10 9 9 11 10 9
15 15 15 14 13 12 12 11 11 10 10 10 10 10 10 9 9 9 9 10 10 11 12 12 12 12 12 12 12 12 12 12 12 12 12 12 12 12 12 12 11 11 11 11 10 9 8 9 11 14 15 15 14 13 14 14 14 14 14 14 14 15 14 14 12 10 9 9 8 8 9 9 9 10 10 11 11 12 12 11 11 11 11 10 9
16 16 16 16 15 13 13 13 12 12 11 11 11 11 11 11 11 11 11 12 12 12 13 13 13 13 13 12 12 12 13 14 14 13 12 12 13 13 12 12 12 12 12 12 11 10 10 10 11 14 15 15 14 13 14 14 14 15 16 16 15 15 13 13 12 9 8 10 9 9 9 9 9 9 9 10 10 10 11 11 11 11 11 9 8
17 17 17 17 16 15 15 15 14 14 14 13 13 13 13 12 13 13 13 13 14 14 14 14 14 14 14 13 13 13 13 14 14 13 13 14 14 13 13 12 13 14 13 13 12 12 12 12 11 13 14 13 13 13 13 13 14 15 16 17 17 15 13 12 12 9 8 12 12 9 8 8 8 9 8 7 8 8 9 9 9 9 9 9 8
18 17 17 17 17 17 16 16 15 15 16 15 15 15 15 15 14 14 14 14 15 15 15 14 14 14 14 14 14 13 13 13 13 13 13 13 13 13 12 13 13 14 14 14 14 14 14 14 12 13 13 13 13 13 13 14 14 15 15 15 15 14 11 10 11 10 9 13 15 11 9 9 9 8 8 6 6 6 7 7 8 9 9 8 8
19 18 17 18 18 18 18 17 17 17 17 17 16 17 17 18 18 17 17 16 16 15 15 15 15 15 15 16 15 14 14 13 13 13 13 12 12 12 12 12 13 14 15 15 15 15 16 15 14 13 13 12 12 13 13 14 14 14 15 14 14 13 11 9 10 11 10 12 14 12 10 9 8 7 7 7 6 6 7 8 9 9 10 9 9
20 19 19 19 19 19 19 18 18 19 19 19 19 19 19 20 20 20 19 18 18 18 18 17 17 17 16 17 17 15 14 13 12 12 12 12 12 12 12 12 14 15 16 16 17 17 17 17 15 14 14 13 12 12 13 13 13 13 14 14 13 12 12 11 12 12 11 12 14 12 9 8 6 5 6 7 7 7 8 8 9 9 10 10 10
21 20 20 20 20 19 19 19 19 19 20 21 22 22 21 21 20 21 21 20 21 21 21 20 19 18 18 18 18 16 15 13 12 12 12 12 12 12 13 13 14 15 16 16 17 17 17 17 16 15 15 14 13 12 13 13 13 13 13 12 12 12 11 11 13 13 12 12 13 12 9 7 5 3 4 5 6 7 7 8 8 9 10 10 11
22 22 22 21 21 22 22 22 22 21 21 21 22 23 23 22 22 22 22 22 22 23 23 22 21 20 19 19 19 18 17 15 14 14 14 14 14 15 15 15 15 15 15 16 16 16 16 16 16 16 16 15 14 14 14 14 13 13 13 12 11 11 10 11 12 13 12 12 12 13 10 6 4 1 2 3 5 6 7 7 8 9 10 11 11
23 23 22 22 23 23 23 24 24 24 24 23 23 23 24 24 23 23 23 23 24 24 24 24 23 22 21 21 22 21 20 19 18 16 16 16 16 16 17 17 17 17 16 16 16 16 17 17 17 17 17 16 16 15 15 15 14 14 13 11 11 10 10 9 10 11 12 12 13 13 11 7 5 1 1 2 4 6 7 8 8 10 11 12 12
23 22 22 22 23 23 23 23 22 22 22 23 23 24 24 25 24 24 24 24 25 25 25 25 24 23 22 23 24 24 24 24 22 20 19 18 18 18 18 18 18 18 17 16 16 16 17 17 17 18 18 17 17 16 16 16 15 14 13 11 10 9 7 7 8 9 11 13 14 13 11 7 5 2 1 1 3 6 7 8 9 11 12 12 12
21 20 20 20 20 22 24 25 24 23 23 23 23 24 24 25 25 25 25 26 27 27 27 27 27 27 27 27 27 26 26 26 26 24 22 21 20 20 19 19 19 18 17 17 16 16 17 17 18 18 18 18 17 17 17 16 16 14 13 11 8 6 5 5 7 9 11 14 14 12 10 7 5 3 1 2 3 5 7 8 10 11 11 11 11
21 21 21 21 22 23 25 26 27 26 26 26 26 26 26 26 27 26 26 27 28 29 30 31 31 32 32 32 32 31 28 27 27 27 25 25 24 22 21 20 19 19 18 17 17 17 17 18 18 19 18 18 18 17 17 16 15 14 12 9 7 6 6 6 7 10 12 14 13 11 8 6 5 4 2 3 5 6 8 9 10 10 10 10 10
18 20 22 23 24 25 27 27 28 28 28 28 28 29 29 28 28 27 27 28 29 30 31 32 33 34 34 33 34 34 32 31 30 28 27 27 26 24 22 21 20 20 19 18 18 18 18 18 19 19 19 18 18 17 16 15 14 13 11 9 9 9 9 9 9 11 12 12 10 8 6 6 5 4 3 4 5 7 9 10 10 9 8 8 8
17 19 21 22 24 25 25 25 27 28 28 28 28 28 29 29 29 29 29 29 30 32 33 34 35 36 36 35 35 34 33 33 33 31 28 28 27 25 23 22 21 21 19 19 19 19 19 19 19 19 19 18 17 16 15 14 13 11 10 10 10 10 10 10 10 10 10 9 8 6 5 5 6 6 6 5 4 6 10 11 10 9 8 7 6
Wind_Direction
126 125 125 126 128 130 132 136 140 143 147 146 144 137 124 98 70 63 63 76 109 108 97 90 87 87 89 90 90 84 76 73 74 78 82 86 88 90 90 88 86 83 80 78 75 73 70 69 67 66 65 64 63 62 61 58 55 53 49 45 41 39 34 29 29 29 32 33 32 34 32 27 13 352 341 336 337 340 341 343 341 332 327 324 322
127 125 124 125 128 133 135 138 144 151 156 154 151 143 127 98 72 63 62 72 99 111 102 91 89 89 90 87 82 76 74 78 81 83 84 85 85 85 86 84 82 79 78 76 75 74 73 73 73 74 75 74 72 69 65 60 55 52 48 45 42 41 39 34 33 32 35 37 36 35 31 23 11 356 344 337 336 339 341 345 340 330 327 326 326
130 127 123 121 125 130 131 137 145 154 158 158 155 145 127 93 63 48 44 62 89 109 106 96 91 88 87 82 77 73 75 82 85 83 81 78 77 76 76 76 76 75 75 74 75 76 77 79 81 83 83 80 75 69 63 58 52 48 44 40 38 37 36 34 32 32 34 36 34 31 27 23 16 5 353 345 341 340 340 342 337 331 331 330 329
134 129 123 119 122 127 129 134 142 153 160 163 162 151 122 68 39 28 36 65 89 104 103 96 91 85 83 78 75 75 77 84 85 82 79 77 74 72 70 69 68 67 68 71 74 77 79 82 85 86 83 78 71 64 58 53 47 43 39 35 32 30 30 29 27 27 27 27 25 22 20 16 13 6 356 349 343 338 334 334 333 331 331 329 327
134 129 125 120 123 127 129 134 142 156 166 171 172 160 113 45 24 22 44 73 91 104 98 91 88 82 78 72 72 77 79 84 85 82 80 76 73 70 68 65 64 63 62 66 72 76 79 82 82 78 74 69 63 58 53 48 43 38 34 31 28 26 25 25 23 21 20 18 16 13 11 6 3 359 351 346 340 335 332 330 329 327 327 324 320
130 126 121 115 118 122 126 133 144 158 171 180 181 171 136 36 25 25 42 67 89 106 96 85 83 79 75 68 67 71 75 79 82 81 77 73 71 68 66 63 62 63 61 63 68 71 72 73 71 63 58 57 55 52 47 44 39 35 32 30 27 26 24 24 22 20 16 12 9 6 2 358 355 351 345 341 336 333 330 328 328 327 327 324 320
124 118 109 105 106 110 120 130 141 157 173 181 182 180 164 36 26 21 27 53 75 109 105 81 73 70 67 62 59 60 65 72 75 74 67 64 63 61 60 60 60 61 62 61 59 57 53 51 47 42 41 43 44 45 43 41 38 35 33 31 30 28 26 25 24 23 21 17 14 9 6 1 357 353 347 342 338 335 331 328 328 328 329 328 325
121 113 103 99 97 103 112 121 134 149 165 175 181 186 166 33 20 15 37 65 68 111 131 83 54 54 50 44 45 52 59 69 71 62 52 49 51 52 53 56 60 61 62 59 53 44 37 35 31 28 29 29 31 35 36 37 37 36 34 33 32 30 28 27 28 29 29 27 23 20 16 11 6 1 355 349 344 339 334 329 328 328 331 330 329
123 117 108 103 102 105 102 105 124 146 160 170 179 182 122 32 15 19 90 77 73 107 118 88 56 46 35 32 36 47 59 74 76 61 52 48 44 46 48 55 62 62 64 63 57 53 49 47 42 37 33 29 30 31 32 33 34 35 35 33 32 30 30 30 31 32 31 29 26 22 19 16 11 7 2 358 353 347 341 334 329 329 330 329 330
126 125 121 116 111 107 98 102 126 155 164 172 180 178 86 28 10 12 271 287 205 138 90 68 52 38 28 29 36 52 72 86 80 62 47 37 31 34 44 56 64 64 66 65 60 59 59 55 49 45 40 37 38 37 34 31 31 34 33 31 28 27 29 31 30 27 25 23 21 19 17 14 12 11 9 6 1 356 350 343 336 334 331 329 329
133 130 131 126 119 116 115 126 144 166 172 182 187 175 105 16 1 352 275 296 238 209 310 14 19 14 10 20 35 49 72 76 58 43 29 22 18 26 43 59 66 64 63 61 57 55 54 49 43 41 40 41 43 39 34 31 29 30 29 26 22 21 23 26 24 21 18 18 16 15 13 10 10 10 11 9 4 359 354 348 344 340 337 333 331
165 142 144 141 137 136 143 152 163 175 183 197 199 184 184 318 347 339 267 285 265 222 240 270 300 320 331 358 36 38 51 50 36 23 17 17 21 36 54 65 67 62 57 52 45 41 42 41 36 34 35 35 34 29 26 26 24 22 20 19 16 13 15 18 16 13 11 12 12 10 9 6 5 6 7 7 6 4 359 352 347 344 342 338 336
220 199 171 164 164 166 174 179 184 185 192 204 205 198 205 241 301 273 259 275 267 237 248 270 269 278 307 2 57 25 28 24 11 2 3 13 28 46 60 64 58 50 44 37 29 27 27 29 28 27 26 21 18 16 15 17 17 13 12 13 11 8 9 11 7 4 5 7 7 5 4 2 0 2 3 3 4 6 6 360 353 348 346 344 344
217 219 196 188 193 206 208 207 208 200 200 205 206 207 215 231 243 248 260 272 257 222 241 263 236 243 317 359 312 309 326 324 336 339 341 352 8 34 49 45 39 36 32 20 14 14 14 17 19 19 17 11 7 6 5 8 10 8 7 9 9 6 7 8 1 358 1 3 4 2 0 357 356 357 359 359 360 3 7 6 1 355 350 350 353
206 207 203 201 202 207 204 203 210 208 203 205 208 210 220 235 234 241 261 260 232 216 240 252 205 217 347 345 316 301 307 306 313 321 326 336 337 10 30 15 13 20 19 10 3 1 6 14 19 19 15 9 5 3 1 3 6 6 8 9 7 5 8 10 2 359 360 0 360 359 355 350 349 351 354 359 358 359 4 7 6 2 357 357 0
202 202 204 207 201 202 202 203 208 207 204 205 210 217 224 236 239 243 256 259 241 241 264 268 263 281 309 337 334 316 312 308 306 309 323 339 332 309 356 352 356 1 1 0 356 348 352 3 8 9 8 7 7 5 4 4 5 7 8 7 4 3 10 13 7 1 359 358 357 357 353 347 345 347 352 1 0 358 1 5 6 5 2 2 4
205 203 200 207 205 205 209 212 213 206 203 205 214 222 227 236 244 250 256 260 256 258 270 273 273 275 288 320 337 335 323 310 305 310 323 330 321 319 339 334 338 348 352 354 353 344 335 342 350 353 355 359 1 2 5 5 5 8 6 360 358 0 7 11 7 1 360 359 356 357 355 349 348 350 356 5 3 359 1 3 5 6 5 7 7
213 209 206 211 213 214 216 219 216 206 201 208 219 224 226 234 243 253 259 259 255 257 268 270 272 273 283 305 320 331 332 322 309 309 315 314 302 311 326 322 323 334 341 343 346 343 332 328 334 345 351 352 351 354 0 2 3 7 4 357 355 357 2 5 3 0 360 360 359 360 359 355 355 356 360 6 5 1 1 2 4 5 6 9 9
217 214 212 215 219 219 220 221 218 211 205 209 220 224 224 231 239 247 253 254 251 256 269 269 270 272 281 298 305 313 331 344 344 325 318 311 301 310 318 317 319 328 333 332 332 334 330 326 328 337 342 340 340 347 356 358 358 2 3 360 356 356 360 359 358 358 357 357 0 2 1 360 2 2 1 4 2 0 359 1 4 5 6 10 11
221 218 217 217 220 218 219 220 221 220 213 211 220 223 223 226 231 235 240 246 248 256 275 274 268 268 272 286 295 306 323 339 347 340 332 323 316 318 319 313 317 326 331 330 329 331 331 329 328 330 332 328 331 342 351 352 349 349 354 358 357 359 0 356 354 355 355 354 358 2 1 1 4 2 359 357 357 358 358 359 4 5 6 10 13
225 224 223 223 223 219 220 220 220 222 216 216 224 226 224 225 225 228 234 243 249 253 264 265 261 268 276 285 295 306 316 321 328 335 334 329 324 324 326 320 315 321 326 324 323 330 332 330 328 330 332 329 327 336 343 342 342 340 345 353 357 359 358 353 351 354 355 355 358 1 2 3 2 357 353 352 352 355 358 358 2 5 5 9 14
226 226 226 228 228 224 221 220 219 220 218 222 232 233 231 231 231 232 236 244 248 250 255 257 259 266 279 291 297 301 307 313 319 325 325 323 320 321 325 324 321 324 327 323 321 328 331 327 325 326 328 326 326 333 335 332 337 340 345 350 353 352 350 348 350 356 359 1 2 3 3 360 355 350 348 349 351 353 359 359 0 5 5 7 15
224 226 227 229 230 227 224 223 223 223 224 230 236 237 237 240 242 241 241 246 247 247 249 253 258 264 273 285 294 297 301 305 309 313 313 309 309 314 320 322 324 328 331 331 332 334 332 325 320 317 319 322 326 332 330 326 332 337 340 344 345 344 343 346 353 360 2 3 3 2 1 356 352 350 349 351 353 352 358 359 360 5 4 5 15
225 228 229 229 229 226 227 230 232 232 233 235 236 236 241 247 249 246 243 244 245 248 250 252 255 260 268 278 287 293 294 296 300 306 309 307 307 313 321 325 329 335 337 337 342 345 340 332 326 323 323 326 327 328 324 322 325 327 330 334 337 339 341 347 354 356 356 356 356 357 359 357 355 355 354 353 352 351 355 358 360 6 5 5 14
230 232 232 232 230 228 231 236 238 238 235 236 238 240 244 249 250 248 245 245 247 250 253 256 259 260 266 273 280 288 290 293 299 308 316 318 320 324 330 332 334 338 339 341 351 358 357 351 345 341 338 332 324 318 314 313 316 321 325 330 335 338 342 347 349 351 351 348 348 352 356 356 354 353 353 349 346 346 351 355 359 6 7 7 14
235 235 234 235 237 236 238 240 241 240 238 239 243 243 243 247 251 249 249 248 247 250 254 260 265 266 269 271 275 281 286 291 297 307 320 328 330 332 333 332 332 336 339 344 356 3 6 4 357 352 350 342 331 323 317 317 319 324 330 334 338 340 342 346 348 348 348 345 344 347 349 349 348 347 347 345 342 341 345 352 0 5 7 10 14
237 237 235 236 242 242 242 244 244 243 242 240 242 244 243 245 246 243 244 248 248 249 252 258 267 270 270 270 271 274 280 287 291 296 310 322 328 330 333 335 335 338 341 348 4 9 6 8 8 4 1 356 350 343 333 332 333 335 339 341 342 343 344 347 349 348 348 345 342 341 341 341 342 342 341 342 341 340 344 354 7 5 5 11 15
240 239 234 235 242 243 243 246 245 245 242 238 239 243 244 245 244 239 240 245 248 251 253 258 266 268 269 269 268 270 275 280 284 287 299 310 315 318 327 336 338 340 342 344 356 6 5 5 8 10 8 3 360 355 344 341 343 344 345 346 346 345 344 345 347 347 346 342 337 335 334 334 336 337 338 341 344 345 352 8 16 7 6 10 13
241 241 238 238 241 243 244 244 244 245 242 241 246 247 245 246 246 247 247 247 248 252 257 264 267 266 264 263 263 266 269 273 278 283 292 302 309 313 316 320 328 335 337 336 340 351 359 359 356 357 2 4 357 352 346 344 345 346 345 346 346 343 340 340 341 342 341 337 333 331 330 330 332 335 339 344 349 354 9 28 20 10 11 11 12
242 242 241 240 241 243 242 239 240 244 244 245 250 250 247 246 249 252 252 251 252 256 262 266 267 265 263 260 258 260 264 270 275 278 285 292 299 306 305 302 309 320 326 325 326 335 348 350 347 346 351 358 355 351 349 343 342 345 344 340 339 336 333 331 333 336 338 335 333 330 330 331 333 338 345 350 357 7 25 35 19 11 15 16 15
242 241 239 239 239 239 240 239 240 243 246 248 249 248 249 250 252 252 252 253 254 256 261 263 263 263 263 263 259 256 258 265 270 275 280 285 289 295 297 294 297 305 313 313 313 323 339 340 337 338 343 349 350 350 350 343 338 339 336 331 330 329 327 327 330 335 337 336 335 333 333 337 339 345 352 356 3 15 25 26 14 9 14 20 23
240 240 237 236 235 234 238 242 243 245 249 251 249 248 250 252 253 253 254 257 257 257 260 263 263 263 263 264 261 255 255 260 266 272 278 281 284 288 290 288 287 295 304 306 305 313 328 331 329 333 338 341 342 343 346 343 335 329 326 327 327 327 327 329 332 336 338 337 336 337 340 343 347 353 357 359 3 12 18 15 10 9 15 23 31
236 237 236 233 232 234 238 240 242 244 247 248 248 249 250 250 250 252 254 258 260 263 265 265 264 263 263 264 261 255 255 260 266 272 279 284 285 286 286 283 280 284 294 300 301 306 316 325 329 332 334 338 341 342 343 342 338 332 329 329 328 328 330 334 337 337 337 338 339 344 348 349 354 0 0 359 0 5 8 8 12 17 20 24 34
233 235 234 233 236 240 239 239 240 241 242 244 244 247 250 250 250 253 254 255 259 262 262 261 261 263 264 265 263 260 260 262 267 272 276 281 284 285 285 283 281 280 285 291 295 299 308 321 331 331 333 338 342 344 344 344 344 342 337 334 332 333 335 339 340 338 338 341 345 350 352 353 358 4 1 357 357 359 1 6 14 20 19 24 33
232 234 234 236 240 242 240 240 241 240 243 243 239 242 246 249 250 251 254 258 260 260 260 259 259 259 260 264 267 266 264 264 267 271 273 276 278 279 277 279 282 278 274 279 286 292 301 317 330 331 333 339 343 344 344 345 345 341 338 337 338 338 339 341 344 343 343 347 350 350 351 351 354 358 358 354 350 351 356 4 10 11 13 22 29
233 234 233 232 235 238 239 240 241 243 246 242 237 239 244 246 247 250 256 261 263 262 261 260 259 258 258 264 270 270 268 267 267 269 272 275 276 273 271 274 277 272 267 269 274 281 292 312 327 332 335 338 341 341 339 341 342 339 338 340 340 340 341 345 350 351 348 348 349 346 344 344 344 345 347 346 343 342 347 353 358 2 7 14 20
234 234 231 229 231 235 238 240 244 246 245 241 238 242 249 251 251 254 259 263 266 266 264 262 261 261 264 269 274 274 272 271 271 271 273 275 275 272 271 273 271 267 264 261 262 269 285 306 321 329 335 336 338 337 335 336 338 337 340 342 340 341 344 347 354 357 350 347 346 339 336 337 336 334 334 334 333 333 335 338 340 348 356 1 8
233 233 230 228 231 237 241 244 247 249 246 243 244 249 255 258 261 264 265 266 268 268 267 266 264 263 266 270 273 274 274 275 275 274 272 272 274 272 269 266 262 259 257 257 260 266 281 301 314 323 330 333 333 333 333 334 334 335 336 338 340 345 347 348 357 2 353 350 348 338 336 336 334 330 325 324 326 326 327 331 333 340 348 354 0
232 232 231 231 234 239 244 246 248 251 251 250 252 255 259 262 267 271 273 273 272 271 269 268 266 265 267 270 273 275 276 277 276 274 271 270 271 271 267 259 251 249 252 255 259 264 276 293 306 315 324 328 328 329 331 330 329 331 334 337 343 349 349 348 356 5 2 3 0 346 343 346 341 336 330 325 326 327 328 333 337 344 353 358 3
233 232 233 235 239 244 247 248 250 253 254 256 259 262 264 267 270 274 278 279 278 276 273 269 267 267 267 269 273 276 278 278 276 273 270 269 270 272 270 261 249 246 249 253 255 261 272 284 297 309 317 321 321 323 325 322 323 329 335 340 343 345 348 349 352 358 7 11 9 357 351 356 353 349 345 336 333 334 334 336 339 347 357 5 7
236 235 236 240 246 250 252 254 256 256 256 258 261 265 269 271 272 275 279 281 282 281 277 273 270 267 267 267 269 273 278 280 278 274 269 268 272 274 271 263 255 251 252 254 256 262 271 280 292 303 309 313 315 318 320 320 324 331 337 339 337 337 344 349 346 347 358 7 7 4 2 7 8 2 357 356 356 353 345 341 342 347 351 355 356
238 239 241 245 251 256 259 261 262 261 259 259 261 265 270 272 272 273 274 277 279 280 277 275 272 270 269 268 267 269 273 277 278 275 271 270 271 272 269 264 262 261 261 260 261 265 272 279 287 294 298 304 309 313 317 319 325 330 333 334 332 331 335 337 337 343 352 359 4 7 12 18 21 13 9 17 19 9 2 1 359 353 347 344 345
240 242 245 249 255 262 266 268 268 266 263 261 262 265 270 271 269 269 271 273 275 277 277 277 275 274 273 271 269 267 268 272 273 270 268 268 270 270 269 266 264 263 263 263 265 266 270 275 278 284 291 298 304 309 313 316 321 325 327 328 328 328 328 325 327 336 345 353 359 5 15 25 27 17 14 20 19 11 10 11 3 352 348 346 345
242 246 249 254 260 266 270 272 272 272 270 267 265 266 269 269 266 265 268 271 274 277 279 279 278 276 274 271 269 265 262 265 268 267 266 268 271 272 271 269 268 266 265 266 268 267 268 270 273 279 286 292 296 302 308 312 315 318 320 321 321 322 323 319 318 324 332 343 350 352 3 26 37 13 3 10 10 7 5 2 356 349 348 346 342
241 245 246 250 256 261 264 267 269 271 272 272 271 269 268 267 264 263 264 267 270 273 277 278 277 274 271 270 267 264 262 260 262 264 268 272 275 275 272 269 269 269 269 270 270 269 268 268 272 277 283 286 290 297 303 307 310 311 313 314 313 315 317 311 309 315 321 331 340 341 347 16 45 28 344 352 349 351 353 353 355 354 351 348 344
245 248 251 254 257 258 261 264 265 267 268 268 269 269 268 267 265 263 262 264 266 268 270 273 273 271 271 269 267 265 263 261 260 262 266 272 276 278 277 272 268 267 269 269 269 268 267 268 271 276 279 282 287 293 299 303 305 306 307 307 307 310 311 305 303 309 314 322 332 335 337 4 39 50 270 315 322 335 350 351 349 350 351 352 350
253 257 260 261 258 255 257 261 264 267 268 268 267 266 266 266 265 264 263 262 262 264 265 266 267 269 272 272 271 268 263 260 260 260 262 268 274 278 279 276 270 268 268 267 266 264 264 266 269 272 276 280 284 290 295 299 300 301 303 305 308 309 305 299 299 304 310 316 324 329 334 356 30 45 251 295 310 324 343 349 346 349 352 352 351
256 260 263 263 260 260 264 266 268 270 271 271 269 267 265 264 264 264 263 262 262 263 263 262 262 265 268 271 273 271 266 261 260 261 263 267 272 277 279 276 270 267 266 264 263 261 262 264 266 269 274 278 283 288 291 294 295 298 303 307 308 302 291 288 293 298 306 311 318 327 335 351 27 50 328 306 305 314 336 348 351 355 355 354 352
263 266 267 268 269 270 270 270 270 269 270 271 271 269 267 265 265 265 265 265 265 265 264 264 264 266 268 269 270 270 268 266 263 262 263 266 269 273 277 275 269 265 263 261 259 259 259 262 265 268 272 275 281 286 287 289 293 299 304 303 295 284 279 281 288 296 304 310 317 328 336 346 21 47 4 318 313 317 334 347 353 357 357 353 351
270 269 270 271 272 271 268 268 269 270 271 272 272 270 268 267 267 267 266 266 267 267 266 266 266 268 270 271 269 267 266 267 266 262 259 263 268 271 272 271 267 263 261 260 260 260 260 262 265 269 272 275 280 281 281 285 292 296 295 288 279 278 281 283 290 300 306 310 315 327 337 343 359 17 7 344 327 322 335 346 350 353 354 351 347
276 273 272 273 273 272 270 271 272 272 272 272 272 271 271 271 271 272 271 270 270 270 269 269 268 268 268 269 268 266 263 263 263 261 257 257 262 266 267 267 265 262 258 258 260 261 262 263 266 269 272 275 276 277 278 283 288 286 282 276 274 278 283 288 296 304 306 306 312 326 338 335 336 343 352 358 346 328 335 343 345 345 346 344 341